Regional Weather Roundup
Issued by NWS

Home | Current Version | Previous Version | Graphics & Text | Print | Product List | Glossary On
Versions: 1 2 3 4 5 6 7 8 9 10 11 12 13 14 15 16 17 18 19 20 21 22 23 24 25 26 27 28 29 30 31 32 33 34 35 36 37 38 39 40 41 42 43 44 45 46 47 48 49 50
000
ASUS43 KOAX 231617
RWRNE

WEATHER ROUNDUP FOR NEBRASKA
NATIONAL WEATHER SERVICE OMAHA NE
1100 AM CDT WED APR 23 2014

NOTES: SATELLITE DATA IS BEING USED TO AUGMENT CLOUD COVER ABOVE
       12000 FEET.
       "FAIR" INDICATES FEW OR NO CLOUDS BELOW 12,000 FEET WITH NO
       SIGNIFICANT WEATHER AND/OR OBSTRUCTIONS TO VISIBILITY.

  * THESE STATIONS DO NOT REPORT WEATHER SUCH AS RAIN...SNOW OR FOG.

NEZ001>004-019>022-054>056-231700-
NEBRASKA PANHANDLE

CITY           SKY/WX    TMP DP  RH WIND       PRES   REMARKS
SCOTTSBLUFF    PTSUNNY   60  31  33 W20       29.61R
ALLIANCE       CLOUDY    61  38  42 NW17      29.59S
CHADRON        CLOUDY    64  36  35 W12G23    29.55S
KIMBALL        CLOUDY    58  32  36 NW15      29.62R
SIDNEY         CLOUDY    58  33  39 NW25      29.64R
$$

NEZ057>060-069>072-079>082-231700-
SOUTHWEST NEBRASKA

CITY           SKY/WX    TMP DP  RH WIND       PRES   REMARKS
NORTH PLATTE   CLOUDY    65  47  52 S16       29.55F
IMPERIAL       CLOUDY    66  43  43 NW14      29.58R
LEXINGTON      CLOUDY    64  46  52 S18G25    29.59S
MCCOOK         CLOUDY    71  46  40 S16G23    29.55F
OGALLALA       CLOUDY    63  45  52 W13       29.57R
$$

NEZ005>010-023>029-035>040-094-231700-
NORTH CENTRAL NEBRASKA

CITY           SKY/WX    TMP DP  RH WIND       PRES   REMARKS
VALENTINE      PTSUNNY   62  40  44 S18       29.52F
AINSWORTH      CLOUDY    64  42  44 S23G31    29.56R
BROKEN BOW     CLOUDY    63  42  46 S26G37    29.59S
O`NEILL        MOSUNNY   62  36  37 S33G46    29.59F
ORD            PTSUNNY   64  40  41 S28G39    29.61F
THEDFORD       CLOUDY    66  42  42 S17       29.55S
$$

NEZ041-046>049-061>064-073>077-083>087-231700-
SOUTH CENTRAL NEBRASKA

CITY           SKY/WX    TMP DP  RH WIND       PRES   REMARKS
GRAND ISLAND   PTSUNNY   63  41  44 S33G43    29.66F
AURORA         PTSUNNY   62  40  45 S31G43    29.68F
HASTINGS       PTSUNNY   63  40  42 S24G35    29.66F
HEBRON         TSTM      57  42  57 S23G33    29.75S
HOLDREGE       PTSUNNY   64  43  46 S29G38    29.61S
KEARNEY *      CLOUDY    63  43  48 S26G38    29.64F
YORK           PTSUNNY   57  43  58 SE30G37   29.72F
$$

NEZ011>018-030>034-042>045-231700-
NORTHEAST NEBRASKA

CITY           SKY/WX    TMP DP  RH WIND       PRES   REMARKS
NORFOLK        PTSUNNY   57  40  52 SE30G43   29.70F
ALBION         PTSUNNY   59  39  47 S32G41    29.68F
BLAIR          CLOUDY    49  41  73 SE24G32   29.83F
COLUMBUS *     PTSUNNY   57  41  54 SE20G31   29.75F
FREMONT        CLOUDY    52  43  71 SE26G36   29.80F
TEKAMAH        CLOUDY    51  43  74 SE29G39   29.82F
$$

NEZ050>053-065>068-078-088>093-231700-
SOUTHEAST NEBRASKA

CITY           SKY/WX    TMP DP  RH WIND       PRES   REMARKS
LINCOLN        LGT RAIN  54  42  64 SE25G35   29.81F
OMAHA EPPLEY   LGT RAIN  50  42  74 SE25G32   29.86F
BEATRICE       CLOUDY    56  42  61 SE20G26   29.80F
FALLS CITY     CLOUDY    54  44  69 SE16G25   29.90F
NEBRASKA CITY  CLOUDY    52  42  68 SE21G29   29.88F
PLATTSMOUTH    CLOUDY    51  41  68 SE20G30   29.86F
$$

NEZ044-045-051>053-067-231700-
OMAHA AREA

CITY           SKY/WX    TMP DP  RH WIND       PRES   REMARKS
OMAHA EPPLEY   LGT RAIN  50  42  74 SE25G32   29.86F
BLAIR          CLOUDY    49  41  73 SE24G32   29.83F
FREMONT        CLOUDY    52  43  71 SE26G36   29.80F
MILLARD        CLOUDY    50  41  71 SE17G25   29.84F
OFFUTT AFB     CLOUDY    50  46  87 SE21G28   29.86F
PLATTSMOUTH    CLOUDY    51  41  68 SE20G30   29.86F
WAHOO          LGT RAIN  53  42  66 SE32G39   29.80F
$$



USA.gov is the U.S. government's official web portal to all federal, state and local government web resources and services.